Weather History for Hattiesburg, MS

Change the Weather History Date:

Wednesday, April 17, 2013

  Actual Average Record
Temperature  
Mean Temperature 77 °F 66 °F  
Max Temperature 86 °F 78 °F 90 °F (2006)
Min Temperature 68 °F 53 °F 33 °F (1951)
Degree Days  
Heating Degree Days 0 2  
Month to date heating degree days 51 65  
Since 1 July heating degree days 1793 1960  
Cooling Degree Days 12 3  
Month to date cooling degree days 56 41  
Year to date cooling degree days 93 89  
Growing Degree Days 26 (Base 50)    
Moisture  
Dew Point 67 °F    
Average Humidity 78    
Maximum Humidity 97    
Minimum Humidity 59    
Precipitation  
Precipitation 0.00 in 0.16 in 1.72 in (1973)
Month to date precipitation 5.92 2.99  
Year to date precipitation 26.50 19.62  
Sea Level Pressure  
Sea Level Pressure 30.06 in    
Wind  
Wind Speed 8 mph (SSE)    
Max Wind Speed 18 mph    
Max Gust Speed 25 mph    
Visibility 8 miles    
Events      
T = Trace of Precipitation, MM = Missing Value Source: NWS Daily Summary

Daily Weather History Graph

Daily Weather History Graph

Search for Another Location

Airport:

Trip Planner

Search our weather history database for the weather conditions in past years. The results will help you decide how hot, cold, wet, or windy it might be!

Date:

Astronomy

Apr. 17, 2013 Rise Set
Actual Time 6:26 AM CDT 7:27 PM CDT
Civil Twilight 6:01 AM CDT 7:52 PM CDT
Nautical Twilight 5:31 AM CDT 8:21 PM CDT
Astronomical Twilight 5:01 AM CDT 8:52 PM CDT
Moon 11:47 AM CDT (4/17) 12:56 AM CDT (4/17)
Length of Visible Light 13h 50m
Length of Day
13h 00m
Waxing Crescent, 42% of the Moon is Illuminated
Apr 17
Waxing Crescent
Apr 18
First Quarter
Apr 25
Full
May 2
Last Quarter
May 9
New

Hourly Weather History & Observations

Time (CDT) Temp. Heat Index Dew Point Humidity Pressure Visibility Wind Dir Wind Speed Gust Speed Precip Events Conditions
12:53 AM 71.1 °F - 69.1 °F 93% 30.10 in 10.0 mi South 6.9 mph - N/A   Clear
1:11 AM 69.8 °F - 68.0 °F 94% 30.10 in 10.0 mi SSE 4.6 mph - N/A   Partly Cloudy
1:53 AM 70.0 °F - 68.0 °F 93% 30.09 in 6.0 mi SE 3.5 mph - N/A   Clear
2:53 AM 69.1 °F - 66.9 °F 93% 30.07 in 7.0 mi Calm Calm - N/A   Scattered Clouds
3:13 AM 69.8 °F - 68.0 °F 94% 30.07 in 7.0 mi Calm Calm - N/A   Mostly Cloudy
3:22 AM 69.8 °F - 66.2 °F 88% 30.07 in 6.0 mi Calm Calm - N/A   Mostly Cloudy
3:53 AM 69.1 °F - 66.9 °F 93% 30.06 in 6.0 mi Calm Calm - N/A   Overcast
4:31 AM 68.0 °F - 66.2 °F 94% 30.08 in 2.5 mi Calm Calm - N/A   Overcast
4:45 AM 68.0 °F - 66.2 °F 94% 30.07 in 3.0 mi East 3.5 mph - N/A   Overcast
4:53 AM 68.0 °F - 66.9 °F 96% 30.06 in 3.0 mi East 3.5 mph - N/A   Overcast
5:53 AM 68.0 °F - 66.9 °F 96% 30.08 in 4.0 mi SSE 6.9 mph - N/A   Overcast
6:53 AM 68.0 °F - 66.9 °F 96% 30.09 in 3.0 mi Calm Calm - N/A   Overcast
7:53 AM 69.1 °F - 66.9 °F 93% 30.11 in 3.0 mi SE 6.9 mph - N/A   Overcast
8:19 AM 69.8 °F - 66.2 °F 88% 30.11 in 8.0 mi ESE 8.1 mph - N/A   Scattered Clouds
9:53 AM 75.9 °F - 66.9 °F 74% 30.12 in 10.0 mi SE 5.8 mph - N/A   Clear
10:53 AM 79.0 °F - 66.0 °F 64% 30.12 in 10.0 mi SE 12.7 mph 16.1 mph N/A   Clear
11:53 AM 80.1 °F 82.1 °F 66.0 °F 62% 30.11 in 10.0 mi SE 11.5 mph - N/A   Clear
12:53 PM 81.0 °F 83.8 °F 68.0 °F 65% 30.10 in 10.0 mi SE 9.2 mph - N/A   Partly Cloudy
1:53 PM 82.9 °F 86.5 °F 69.1 °F 63% 30.07 in 10.0 mi South 9.2 mph 18.4 mph N/A   Mostly Cloudy
2:53 PM 82.9 °F 85.8 °F 68.0 °F 60% 30.04 in 10.0 mi SSE 15.0 mph 20.7 mph N/A   Scattered Clouds
3:53 PM 82.9 °F 85.8 °F 68.0 °F 60% 30.01 in 10.0 mi SSE 13.8 mph - N/A   Partly Cloudy
4:53 PM 84.9 °F 88.2 °F 68.0 °F 57% 29.99 in 10.0 mi SSE 13.8 mph 23.0 mph N/A   Partly Cloudy
5:53 PM 82.0 °F 84.9 °F 68.0 °F 62% 30.00 in 10.0 mi South 11.5 mph - N/A   Partly Cloudy
6:53 PM 80.1 °F 82.7 °F 68.0 °F 67% 29.99 in 10.0 mi South 9.2 mph - N/A   Partly Cloudy
7:53 PM 77.0 °F - 68.0 °F 74% 30.00 in 10.0 mi South 6.9 mph - N/A   Partly Cloudy
8:53 PM 75.0 °F - 69.1 °F 82% 30.01 in 10.0 mi SSE 12.7 mph - N/A   Scattered Clouds
9:53 PM 73.0 °F - 66.0 °F 79% 30.01 in 10.0 mi SE 11.5 mph - N/A   Clear
10:53 PM 71.1 °F - 66.0 °F 84% 30.00 in 10.0 mi ESE 6.9 mph - N/A   Clear
11:53 PM 70.0 °F - 64.9 °F 84% 29.99 in 10.0 mi SSE 6.9 mph - N/A   Clear